Marysville Information Retrieval System - MIRS


Language 

Compress and download current folder (in a ZIP archive)

Download filesSizeDate modified
Adult Family Home Information 5-7-2021 2018 IBC.pdf912.9 KB08/31/2021 02:01:54
AFH Local Building Inspection Checklist WABO 2018 IBC.pdf874.4 KB08/31/2021 02:01:56
Certificate of Occupancy Process 5-7-2021 2018 IBC.pdf575.3 KB08/31/2021 02:01:47
Combined Building Permit 5-7-2021 2018 IBC.pdf1.5 MB08/31/2021 02:02:11
CONTRACTOR Checklist-2018.pdf46 KB08/31/2021 02:02:00
Deck Information above 30 inches 5-7-2021 2018 IBC.pdf794.4 KB08/31/2021 02:02:13
Demolition Information 5-8-2021 2018 IBC.pdf569.5 KB08/31/2021 02:02:30
Demolition Permit Application 5-8-2021 2018 IBC.pdf949.3 KB08/31/2021 02:02:31
Demolition Pre Application Checklist 5-8-2021 2018 IBC.pdf557.8 KB08/31/2021 02:02:27
Design Criteria for Marysville IBC 2018 Code 2-1-2021.pdf258.2 KB04/04/2022 01:31:49
Electrical Permit Application revised 5-8-2021 2018 IBC.pdf624.8 KB08/31/2021 02:02:25
Electrical Permit Submittal Guide_Checklist.pdf119.3 KB08/31/2021 02:02:34
Electrical Plan Review Submittal Guide_Checklist 5-8-2021 2018 IBC.pdf474.8 KB08/31/2021 02:02:38
Electrical Submittal Guide_Checklist.pdf56.9 KB08/31/2021 02:02:33
Exempted Work 5-8-2021 2018 IBC.pdf543.1 KB08/31/2021 02:02:43
Fences And Retaining Walls 5-8-2021 2018 IBC.pdf645.8 KB08/31/2021 02:02:41
Fire Construction Permit Application 5-8-2021 2018 IFC.pdf1.6 MB08/31/2021 02:03:09
Fire Watch Guideline for Business.pdf244.2 KB08/31/2021 02:02:47
Grading Permit Application 5-8-2021 2018 IBC.pdf610.8 KB08/31/2021 02:02:57
Grading Permit Requirements 5-8-2021 2018 IBC.pdf531.9 KB08/31/2021 02:02:57
Grease Interceptor Requirements 5-8-2021 2018 IBC.pdf511.1 KB08/31/2021 02:03:01
Grinder Pump Application.pdf752.9 KB08/31/2021 02:03:29
Grinder Pump Engineering Standards.pdf653.7 KB08/31/2021 02:03:28
Grinder Pump Permit Application 2018.pdf2.4 MB08/31/2021 02:03:46
Guard Rails 5-8-2021 2018 IBC.pdf502.6 KB08/31/2021 02:03:16
How to schedule inspections online.pdf1.8 MB04/04/2022 01:32:32
IBC section 104 Form for CODE OFFICIAL.pdf141.9 KB08/31/2021 02:04:07
IBC Statement of Special Inspections_0.pdf280.3 KB08/31/2021 02:04:08
Licensed Designers.doc24 KB08/31/2021 02:04:07
MFD Emergency Standby Power Systems Checklist 5-8-2021 2018 IFC.pdf642.7 KB08/31/2021 02:04:12
MFD Automatic Fire-Extinguishing Systems Checklist 5-8-2021 2018 IFC.pdf667.1 KB08/31/2021 02:04:30
MFD Battery Systems Checklist 5-8-2021 2018 IFC.pdf650.5 KB08/31/2021 02:04:33
MFD Carbon Dioxide (CO2) Systems Checklist 5-8-2021 2018 IFC.pdf540.2 KB08/31/2021 02:04:33
MFD Classification of Commodities Handout 5-8-2021 2018 IFC.pdf577 KB08/31/2021 02:04:30
MFD Compressed Gases Checklist 5-8-2021 2018 IFC.pdf651.2 KB08/31/2021 02:04:25
MFD Cryogenic Fluids Checklist 5-8-2021 2018 IFC.pdf747.8 KB08/31/2021 02:04:47
MFD Emergency Responder Radio System Checklist 5-8-2021 2018 IFC.pdf634.1 KB08/31/2021 02:04:47
MFD Fire Alarm Installation Submittal Checklist 5-8-2021 2018 IFC.pdf747.3 KB08/31/2021 02:04:53
MFD Flammable and Combustible Liquids Checklist 5-8-2021 2018 IFC.pdf656.5 KB08/31/2021 02:04:59
MFD Gates and Barricades Checklist 5-8-2021 2018 IFC.pdf632.2 KB08/31/2021 02:04:43
MFD Hazardous Materials Checklist 5-8-2021 2018 IFC.pdf544.2 KB08/31/2021 02:05:06
MFD Hazardous Materials Inventory Statement (1) 5-8-2021 2018 IFC.pdf448.4 KB08/31/2021 02:05:20
MFD High Piled Storage Checklist 5-8-2021 2018 IFC.pdf635.6 KB08/31/2021 02:05:20
MFD Industrial Ovens Storage Checklist 5-8-2021 2018 IFC.pdf539.3 KB08/31/2021 02:05:14
MFD LP Gas Checklist 5-8-2021 2018 IFC 5-8-2021 2018 IFC.pdf445 KB08/31/2021 02:05:17
MFD Private Fire Hydrants Checklist 5-8-2021 2018 IFC.pdf441.9 KB08/31/2021 02:05:25
MFD Pumps and Related Equipment Checklist 5-8-2021 2018 IFC.pdf538.9 KB08/31/2021 02:00:56
MFD Requirements for Carbon Dioxide (CO2) Systems 5-8-2021 2018 IFC.pdf607.2 KB08/31/2021 02:00:52
MFD Residential Tank Decommissioning Checklist 5-8-2021 2018 IFC.pdf648.1 KB08/31/2021 02:01:01
MFD Smoke Control or Exhaust Systems Checklist 5-8-2021 2018 IFC.pdf446.2 KB08/31/2021 02:01:01
MFD Solar Photovoltaic Power Systems Checklist 5-8-2021 2018 IFC.pdf648.2 KB08/31/2021 02:00:54
MFD Spraying and Dipping Checklist 5-8-2021 2018 IFC.pdf650 KB08/31/2021 02:01:19
MFD Standpipe Systems Checklist 5-8-2021 2018 IFC.pdf442.9 KB08/31/2021 02:01:18
MFD Temporary Membrane Structures Checklist 5-8-2021 2018 IFC.pdf649.4 KB08/31/2021 02:01:16
MFD Underground Supply Piping for Fire Sprinklers Checklist 5-8-2021 2018 IFC.pdf646.7 KB08/31/2021 02:01:12
Mobile Home Permit Application 5-8-2021 2018 IBC.pdf553.1 KB08/31/2021 02:01:18
Owner Occupancy Declaration 5-8-2021 2018 IBC.pdf462.1 KB08/31/2021 02:01:27
Reroofing Commercial 5-8-2021 2018 IBC.pdf542.5 KB08/31/2021 02:01:27
Sample of Combined Building Permit Filled Out.doc180.5 KB08/31/2021 02:01:23
Sign Permit Application Checklist 2018.pdf116.8 KB04/04/2022 01:27:26
Sign Permit Application.pdf313.8 KB04/04/2022 01:31:13
Site Plan Example.pdf57.2 KB08/31/2021 02:01:33
SNOHOMISH HEALTH DISTRICT CLEARANCE_FOR_CITIES (1) FILLABLE.pdf230.9 KB08/31/2021 02:01:35
SNOHOMISH HEALTH DISTRICT CLEARANCE_FOR_CITIES (1).pdf207.1 KB08/31/2021 02:01:36
SNOHOMISH_HEALTH-DISTRICT_CLEARANCE_for_CITIES_FILLABLE.pdf230.9 KB08/31/2021 02:01:35
Solar Panel Permit 5-8-2021 2018 IBC.pdf489 KB08/31/2021 02:01:32
Type I and II Hoods Check list.pdf345.8 KB08/31/2021 02:01:43
Volunteer Application Updated 12 15 2011 C.PDF271.3 KB08/31/2021 02:01:42